Location: Newark
(33.6439°N, 114.9881°W)
Time: 18:54:05
(UTC+00:00)

ISS - Visible Passes

Search period start: 23 March 2019 00:00
Search period end: 02 April 2019 00:00
Orbit: 408 x 411 km, 51.6° (Epoch: 23 March)

Date Brightness Start Highest point End Pass type
(mag) Time Alt. Az. Time Alt. Az. Time Alt. Az.
23 Mar -3.8 02:15:59 10° SW 02:19:16 84° SE 02:22:34 10° NE visible
23 Mar -0.7 03:54:55 10° NW 03:56:14 12° NNW 03:57:17 11° N visible
24 Mar -1.1 03:02:58 10° W 03:05:23 19° NNW 03:07:49 10° NNE visible
